Regional Weather Roundup
Issued by NWS

Home | Current Version | Previous Version | Graphics & Text | Print | Product List | Glossary On
Versions: 1 2 3 4 5 6 7 8 9 10 11 12 13 14 15 16 17 18 19 20 21 22 23 24 25 26 27 28 29 30 31 32 33 34 35 36 37 38 39 40 41 42 43 44 45 46 47 48 49 50
000
ASUS45 KSLC 281710
RWRUT

UTAH REGIONAL WEATHER ROUNDUP
NATIONAL WEATHER SERVICE SALT LAKE CITY UT
1100 AM MDT THU MAY 28 2015

UTZ001>011-023>025-281800-

NORTHERN UTAH

CITY           SKY/WX    TMP DP  RH WIND       PRES   REMARKS
BRIGHAM CITY   MOSUNNY   62  42  48 SW8       30.13S
HILL AFB       MOSUNNY   62  44  53 VRB2      30.13S
LOGAN          MOSUNNY   59  46  62 VRB3      30.12F
OGDEN          PTSUNNY   61  43  51 SW3       30.12S
PROVO AIRPORT  MOSUNNY   57  48  72 E13       30.15F
SALT LAKE CITY MOSUNNY   63  45  51 S5        30.11S
VERNAL         MOSUNNY   61  48  62 E8        30.13F
WENDOVER       SUNNY     61  46  59 SE3       30.12F
HEBER CITY     MOSUNNY   52  45  76 W3        30.19S
WEST JORDAN    SUNNY     63  48  59 SE12      30.13S

$$

UTZ012>022-026-027-281800-

SOUTHERN/CENTRAL UTAH

CITY           SKY/WX    TMP DP  RH WIND       PRES   REMARKS
BLANDING       SUNNY     69  37  31 S5        30.22S
BRYCE CANYON   SUNNY     62  31  31 W6        30.24S
CEDAR CITY     MOSUNNY   66  39  37 CALM      30.14S
DELTA          MOSUNNY   64  42  44 CALM      30.14S
HANKSVILLE     MOSUNNY   68  41  37 CALM      30.12F
MILFORD        SUNNY     63  48  58 CALM      30.13S
MOAB/CYNLANDS  SUNNY     69  43  38 VRB3      30.09F
PRICE          MOSUNNY   60  42  51 SE3       30.16S
ST GEORGE      MOSUNNY   73  41  31 CALM      30.05F
KANAB          SUNNY     72  36  26 S6        30.16S

$$

REGIONAL REPORTS     COLORADO/ARIZONA

CITY           SKY/WX    TMP DP  RH WIND       PRES   REMARKS
CRAIG, CO      SUNNY     61  42  49 W9        30.17F
GRAND JUNCTION SUNNY     63  46  54 CALM      30.12F
RIFLE          SUNNY     61  47  59 VRB3      30.15F
MONTROSE       SUNNY     65  41  41 VRB3      30.16F
CORTEZ         SUNNY     70  40  33 VRB3      30.15S
PAGE, AZ       SUNNY     72  41  32 CALM      30.09F
GRAND CANYON   SUNNY     69  27  20 VRB3      30.22S
KINGMAN        SUNNY     82  25  12 W9        30.05S
FLAGSTAFF      SUNNY     67  27  22 SW5       30.24S

$$

REGIONAL REPORTS    NEVADA/IDAHO/WYOMING

CITY           SKY/WX    TMP DP  RH WIND       PRES   REMARKS
LAS VEGAS, NV  SUNNY     83  30  14 VRB3      29.93F
ELY            SUNNY     63  43  48 CALM      30.18F
ELKO           SUNNY     63  45  51 CALM      30.14S
POCATELLO, ID  PTSUNNY   58  49  72 VRB5      30.14S
BURLEY         SUNNY     61  47  59 W8        30.12R
EVANSTON, WY   MOSUNNY   52  43  71 W14       30.19F
ROCK SPRINGS   PTSUNNY   53  40  61 W17       30.18R
KEMMERER       PTSUNNY   54  37  54 SW8       30.18F

$$



USA.gov is the U.S. government's official web portal to all federal, state and local government web resources and services.